Location: Crescent
(42.8242°N, 73.7329°W)
Time: 02:13:35
(UTC+00:00)

Explorer 7 - Pass Details

Date: 20 February 2026
Orbit: 430 x 541 km, 50.2° (Epoch: 13 March)

Event Time Altitude Azimuth Distance (km) Brightness Sun altitude
Rises 20:17:57 0° 266° (W) 2,423 11.0 21.2°
Reaches altitude 10° 20:20:10 10° 276° (W) 1,570 10.0 20.9°
Maximum altitude 20:23:26 34° 343° (NNW) 766 7.6 20.5°
Drops below altitude 10° 20:26:50 10° 51° (NE) 1,628 8.7 20.0°
Sets 20:29:10 0° 60° (ENE) 2,529 9.6 19.6°
